AAY3473 KCHA-KFLL

Flight info

Callsign AAY3473
Flight time N/A
Altitude 37000
Route RMG THRSR WALET ZPLEN TEEKY4
Aircraft A319/M-VGDW/C

Departure

Time 2026-04-20 19:09
Airport Chattanooga Metropolitan Airport (Lovell Field) (KCHA)

Arrival

Time N/A
Airport Fort Lauderdale Hollywood International Airport (KFLL)
Time Latitude Longitude Altitude Speed Heading
2026-04-20 18:58 35.03816 -85.19856 679 ft 0 kts 160°
2026-04-20 19:04 35.03831 -85.19864 678 ft 2 kts 157°
2026-04-20 19:04 35.03845 -85.19872 677 ft 2 kts 149°
2026-04-20 19:04 35.03859 -85.19884 676 ft 2 kts 129°
2026-04-20 19:04 35.03864 -85.19902 673 ft 2 kts 41°
2026-04-20 19:05 35.03857 -85.19909 674 ft 1 kts 18°
2026-04-20 19:05 35.03856 -85.19909 674 ft 0 kts 17°
2026-04-20 19:06 35.03864 -85.19906 673 ft 2 kts 18°
2026-04-20 19:06 35.03880 -85.19899 677 ft 3 kts 21°
2026-04-20 19:06 35.03896 -85.19890 679 ft 0 kts 24°
2026-04-20 19:06 35.03897 -85.19891 679 ft 0 kts 17°
2026-04-20 19:07 35.03913 -85.19889 679 ft 5 kts
2026-04-20 19:07 35.03961 -85.19872 678 ft 9 kts 17°
2026-04-20 19:07 35.04027 -85.19861 675 ft 11 kts 346°
2026-04-20 19:07 35.04105 -85.19913 677 ft 14 kts 327°
2026-04-20 19:08 35.04183 -85.19982 678 ft 14 kts 304°
2026-04-20 19:08 35.04059 -85.20099 680 ft 30 kts 196°
2026-04-20 19:08 35.03593 -85.20267 677 ft 106 kts 196°
2026-04-20 19:09 35.02693 -85.20602 722 ft 158 kts 194°
2026-04-20 19:09 35.01647 -85.20988 1436 ft 155 kts 202°
2026-04-20 19:09 35.00633 -85.21359 2221 ft 153 kts 204°
2026-04-20 19:09 34.99586 -85.21744 2787 ft 165 kts 201°
2026-04-20 19:10 34.98341 -85.21870 3249 ft 199 kts 170°
2026-04-20 19:10 34.96971 -85.21198 3648 ft 226 kts 157°
2026-04-20 19:10 34.95471 -85.20323 4090 ft 251 kts 156°
2026-04-20 19:10 34.93851 -85.19348 4654 ft 273 kts 155°
2026-04-20 19:11 34.92112 -85.18294 5555 ft 284 kts 155°
2026-04-20 19:11 34.90320 -85.17211 6479 ft 292 kts 155°
2026-04-20 19:11 34.88459 -85.16097 7341 ft 301 kts 155°
2026-04-20 19:11 34.86558 -85.14967 8234 ft 307 kts 155°
2026-04-20 19:12 34.84612 -85.13817 9148 ft 313 kts 155°
2026-04-20 19:12 34.82651 -85.12665 10068 ft 319 kts 155°
2026-04-20 19:12 34.80583 -85.11453 10539 ft 341 kts 155°
2026-04-20 19:12 34.78386 -85.10168 11097 ft 355 kts 155°
2026-04-20 19:13 34.76136 -85.08851 11896 ft 361 kts 156°
2026-04-20 19:13 34.73881 -85.07530 12701 ft 366 kts 156°
2026-04-20 19:13 34.71562 -85.06171 13515 ft 371 kts 156°
2026-04-20 19:13 34.69212 -85.04795 14289 ft 377 kts 156°
2026-04-20 19:14 34.66826 -85.03401 14979 ft 382 kts 156°
2026-04-20 19:14 34.64451 -85.02015 15649 ft 386 kts 156°
2026-04-20 19:14 34.62017 -85.00593 16336 ft 390 kts 156°
2026-04-20 19:14 34.59548 -84.99151 17008 ft 395 kts 156°
2026-04-20 19:15 34.57046 -84.97693 17670 ft 400 kts 156°
2026-04-20 19:15 34.54515 -84.96218 18341 ft 405 kts 156°
2026-04-20 19:15 34.51951 -84.94724 18955 ft 410 kts 156°
2026-04-20 19:15 34.49396 -84.93237 19529 ft 414 kts 156°
2026-04-20 19:16 34.46777 -84.91712 20101 ft 419 kts 156°
2026-04-20 19:16 34.44131 -84.90170 20682 ft 424 kts 156°
2026-04-20 19:16 34.41452 -84.88612 21252 ft 428 kts 156°
2026-04-20 19:16 34.38749 -84.87046 21826 ft 433 kts 156°
2026-04-20 19:17 34.36011 -84.85463 22395 ft 438 kts 156°
2026-04-20 19:17 34.33243 -84.83863 22964 ft 442 kts 156°
2026-04-20 19:17 34.30485 -84.82269 23496 ft 447 kts 157°
2026-04-20 19:17 34.27658 -84.80636 24042 ft 451 kts 157°
2026-04-20 19:18 34.24801 -84.78982 24513 ft 455 kts 157°
2026-04-20 19:18 34.21932 -84.77322 24987 ft 459 kts 157°
2026-04-20 19:18 34.19036 -84.75650 25460 ft 462 kts 158°
2026-04-20 19:18 34.16154 -84.73989 25907 ft 465 kts 158°
2026-04-20 19:19 34.13222 -84.72302 26340 ft 468 kts 158°
2026-04-20 19:19 34.10261 -84.70602 26761 ft 472 kts 158°
2026-04-20 19:19 34.07284 -84.68895 27222 ft 475 kts 159°
2026-04-20 19:19 34.04319 -84.67190 27648 ft 478 kts 159°
2026-04-20 19:20 34.01307 -84.65454 28086 ft 481 kts 159°
2026-04-20 19:20 33.98263 -84.63702 28513 ft 484 kts 159°
2026-04-20 19:20 33.95207 -84.61944 28920 ft 487 kts 160°
2026-04-20 19:20 33.92131 -84.60177 29338 ft 490 kts 160°
2026-04-20 19:21 33.89079 -84.58430 29739 ft 493 kts 160°
2026-04-20 19:21 33.85961 -84.56649 30107 ft 496 kts 160°
2026-04-20 19:21 33.82822 -84.54857 30488 ft 499 kts 161°
2026-04-20 19:21 33.79657 -84.53055 30816 ft 502 kts 161°
2026-04-20 19:22 33.76528 -84.51273 31133 ft 505 kts 161°
2026-04-20 19:22 33.73333 -84.49451 31442 ft 508 kts 161°
2026-04-20 19:22 33.70126 -84.47622 31760 ft 510 kts 162°
2026-04-20 19:22 33.67994 -84.46407 31946 ft 512 kts 162°
2026-04-20 19:23 33.64766 -84.44569 32256 ft 515 kts 162°
2026-04-20 19:23 33.60381 -84.42446 32634 ft 510 kts 170°
2026-04-20 19:23 33.58108 -84.41497 32846 ft 511 kts 170°
2026-04-20 19:23 33.54787 -84.40105 33261 ft 511 kts 170°
2026-04-20 19:24 33.51427 -84.38699 33692 ft 510 kts 171°
2026-04-20 19:24 33.46985 -84.36841 34290 ft 509 kts 171°
2026-04-20 19:24 33.44720 -84.35892 34536 ft 508 kts 171°
2026-04-20 19:24 33.41422 -84.34511 34884 ft 508 kts 171°
2026-04-20 19:25 33.38078 -84.33115 35222 ft 507 kts 172°
2026-04-20 19:25 33.34741 -84.31726 35545 ft 506 kts 172°
2026-04-20 19:25 33.31404 -84.30339 35864 ft 506 kts 172°
2026-04-20 19:25 33.28071 -84.28956 36172 ft 506 kts 172°
2026-04-20 19:26 33.24783 -84.27589 36469 ft 505 kts 172°
2026-04-20 19:26 33.21461 -84.26206 36762 ft 505 kts 172°
2026-04-20 19:26 33.18147 -84.24826 37061 ft 504 kts 172°
2026-04-20 19:26 33.14822 -84.23444 37293 ft 505 kts 172°
2026-04-20 19:27 33.11516 -84.22074 37346 ft 499 kts 172°
2026-04-20 19:27 33.05026 -84.19385 37353 ft 494 kts 172°
2026-04-20 19:28 32.98527 -84.16701 37356 ft 493 kts 172°
2026-04-20 19:28 32.92036 -84.14030 37351 ft 492 kts 172°
2026-04-20 19:29 32.85598 -84.11386 37346 ft 492 kts 172°
2026-04-20 19:29 32.79118 -84.08723 37335 ft 491 kts 172°
2026-04-20 19:30 32.72679 -84.06076 37327 ft 491 kts 173°
2026-04-20 19:30 32.66212 -84.03421 37334 ft 491 kts 173°
2026-04-20 19:31 32.59743 -84.00772 37347 ft 490 kts 173°
2026-04-20 19:31 32.53328 -83.98150 37344 ft 490 kts 173°
2026-04-20 19:32 32.46868 -83.95512 37346 ft 489 kts 173°
2026-04-20 19:32 32.40463 -83.92875 37343 ft 489 kts 172°
2026-04-20 19:33 32.34021 -83.90323 37343 ft 486 kts 174°
2026-04-20 19:33 32.27553 -83.87994 37340 ft 484 kts 176°
2026-04-20 19:34 32.21089 -83.85749 37343 ft 484 kts 175°
2026-04-20 19:34 32.14646 -83.83478 37341 ft 484 kts 175°
2026-04-20 19:35 32.08183 -83.81167 37345 ft 484 kts 175°
2026-04-20 19:35 32.01755 -83.78859 37345 ft 484 kts 175°
2026-04-20 19:36 31.95298 -83.76544 37348 ft 484 kts 175°
2026-04-20 19:36 31.88884 -83.74257 37349 ft 484 kts 175°
2026-04-20 19:37 31.82432 -83.71965 37343 ft 483 kts 175°
2026-04-20 19:37 31.75993 -83.69694 37340 ft 483 kts 175°
2026-04-20 19:38 31.69591 -83.67433 37333 ft 483 kts 175°
2026-04-20 19:38 31.63105 -83.65121 37323 ft 489 kts 175°
2026-04-20 19:39 31.56606 -83.62807 37315 ft 490 kts 175°
2026-04-20 19:39 31.50089 -83.60487 37306 ft 489 kts 175°
2026-04-20 19:40 31.43623 -83.58072 37295 ft 493 kts 169°
2026-04-20 19:40 31.37303 -83.55020 37283 ft 490 kts 168°
2026-04-20 19:41 31.31067 -83.51894 37275 ft 489 kts 168°
2026-04-20 19:41 31.24810 -83.48774 37261 ft 488 kts 168°
2026-04-20 19:42 31.18546 -83.45686 37249 ft 487 kts 169°
2026-04-20 19:42 31.12323 -83.42626 37227 ft 487 kts 169°
2026-04-20 19:43 31.06074 -83.39558 37220 ft 487 kts 169°
2026-04-20 19:43 30.99817 -83.36492 37210 ft 486 kts 169°
2026-04-20 19:44 30.93614 -83.33456 37204 ft 486 kts 169°
2026-04-20 19:44 30.87359 -83.30389 37204 ft 486 kts 169°
2026-04-20 19:45 30.81148 -83.27355 37198 ft 486 kts 169°
2026-04-20 19:45 30.74897 -83.24304 37190 ft 486 kts 169°
2026-04-20 19:46 30.68688 -83.21279 37177 ft 486 kts 169°
2026-04-20 19:46 30.62436 -83.18239 37167 ft 486 kts 169°
2026-04-20 19:47 30.56236 -83.15229 37156 ft 486 kts 169°
2026-04-20 19:47 30.49990 -83.12196 37140 ft 486 kts 169°
2026-04-20 19:48 30.43749 -83.09169 37128 ft 486 kts 168°
2026-04-20 19:48 30.37507 -83.06157 37116 ft 485 kts 169°
2026-04-20 19:49 30.31302 -83.03165 37102 ft 485 kts 168°
2026-04-20 19:49 30.25063 -83.00151 37097 ft 485 kts 168°
2026-04-20 19:50 30.18818 -82.97142 37084 ft 485 kts 168°
2026-04-20 19:50 30.12613 -82.94160 37068 ft 485 kts 168°
2026-04-20 19:51 30.06374 -82.91158 37054 ft 484 kts 168°
2026-04-20 19:51 30.00181 -82.88190 37042 ft 484 kts 168°
2026-04-20 19:52 29.93947 -82.85207 37025 ft 483 kts 168°
2026-04-20 19:52 29.87761 -82.82240 37010 ft 483 kts 168°
2026-04-20 19:53 29.81538 -82.79263 36999 ft 483 kts 168°
2026-04-20 19:53 29.75319 -82.76293 36991 ft 482 kts 168°
2026-04-20 19:54 29.69144 -82.73352 36985 ft 482 kts 168°
2026-04-20 19:54 29.62939 -82.70405 37195 ft 482 kts 168°
2026-04-20 19:55 29.56763 -82.67474 37239 ft 483 kts 168°
2026-04-20 19:55 29.50545 -82.64517 37238 ft 483 kts 168°
2026-04-20 19:56 29.45378 -82.62063 37238 ft 482 kts 168°
2026-04-20 19:56 29.38141 -82.58637 37228 ft 482 kts 168°